Doha, Qatar

10:09 AM +03 on June 28, 2017 (GMT +0300)
Doha International

Weather History for OTBD - January, 2014

Change the Weather History Date:

Friday, January 3, 2014

  Actual Average Record
Temperature  
Mean Temperature 66 °F -  
Max Temperature 70 °F 71 °F 84 °F (2008)
Min Temperature 63 °F 55 °F 50 °F (2007)
Cooling Degree Days 2    
Growing Degree Days 16 (Base 50)    
Moisture  
Dew Point 52 °F    
Average Humidity 59    
Maximum Humidity 83    
Minimum Humidity 37    
Precipitation  
Precipitation 0.00 in 0.02 in - ()
Sea Level Pressure  
Sea Level Pressure 30.21 in    
Wind  
Wind Speed 8 mph ()    
Max Wind Speed 13 mph    
Max Gust Speed -    
Visibility 7.1 miles    
Events      
Averages and records for this station are not official NWS values.
T = Trace of Precipitation, MM = Missing Value Source: Averaged Metar Reports

Daily Weather History Graph

Daily Weather History Graph

Search for Another Location

Airport or City:

Trip Planner

Search our weather history database for the weather conditions in past years. The results will help you decide how hot, cold, wet, or windy it might be!

Date:

Astronomy

Jan. 03, 2014 Rise Set
Actual Time 6:19 AM +03 4:56 PM +03
Civil Twilight 5:54 AM +03 5:21 PM +03
Nautical Twilight 5:26 AM +03 5:49 PM +03
Astronomical Twilight 4:58 AM +03 6:17 PM +03
Moon 7:43 AM +03 (1/3) 7:20 PM +03 (1/3)
Length of Visible Light 11h 26m
Length of Day
10h 36m
Waxing Crescent, 5% of the Moon is Illuminated
Jan 3
Waxing Crescent
Jan 8
First Quarter
Jan 16
Full
Jan 24
Last Quarter
Jan 31
New

Hourly Weather History & Observations

Time (+03) Temp. Dew Point Humidity Pressure Visibility Wind Dir Wind Speed Gust Speed Precip Events Conditions
12:00 AM 65 °F 58 °F 71% 30.19 in 7 mi NNW 5.8 mph - -   Scattered Clouds
12:00 AM 66.2 °F 57.2 °F 73% 30.18 in 6.2 mi NNW 5.8 mph - N/A   Partly Cloudy
12:30 AM 66.2 °F 57.2 °F 73% 30.18 in 6.2 mi NW 4.6 mph - N/A   Partly Cloudy
1:00 AM 64.4 °F 57.2 °F 77% 30.18 in 6.2 mi NNW 5.8 mph - N/A   Partly Cloudy
1:30 AM 64.4 °F 59.0 °F 83% 30.18 in 6.2 mi NW 3.5 mph - N/A   Partly Cloudy
2:00 AM 64.4 °F 59.0 °F 83% 30.18 in 6.2 mi NNW 9.2 mph - N/A   Partly Cloudy
2:30 AM 64.4 °F 57.2 °F 77% 30.18 in 6.2 mi NNW 11.5 mph - N/A   Scattered Clouds
3:00 AM 64 °F 56 °F 69% 30.19 in 7 mi NNW 10.4 mph - -   Partly Cloudy
3:00 AM 64.4 °F 57.2 °F 77% 30.18 in 6.2 mi NNW 10.4 mph - N/A   Scattered Clouds
3:30 AM 64.4 °F 55.4 °F 73% 30.18 in 6.2 mi NNW 10.4 mph - N/A   Scattered Clouds
4:00 AM 64.4 °F 53.6 °F 68% 30.18 in 6.2 mi NNW 10.4 mph - N/A   Scattered Clouds
4:30 AM 64.4 °F 53.6 °F 68% 30.18 in 6.2 mi NNW 10.4 mph - N/A   Partly Cloudy
5:00 AM 64.4 °F 51.8 °F 64% 30.18 in - NNW 8.1 mph - N/A   Clear
5:30 AM 64.4 °F 51.8 °F 64% 30.18 in - NNW 9.2 mph - N/A   Clear
6:00 AM 64 °F 52 °F 55% 30.22 in 7 mi NNW 10.4 mph - -   Partly Cloudy
6:00 AM 64.4 °F 51.8 °F 64% 30.21 in - NNW 10.4 mph - N/A   Clear
6:30 AM 64.4 °F 50.0 °F 59% 30.21 in - NNW 10.4 mph - N/A   Clear
7:00 AM 64.4 °F 50.0 °F 59% 30.24 in - NNW 10.4 mph - N/A   Clear
7:30 AM 64.4 °F 50.0 °F 59% 30.24 in - NW 10.4 mph - N/A   Clear
8:00 AM 64.4 °F 50.0 °F 59% 30.24 in - NNW 10.4 mph - N/A   Clear
8:30 AM 66.2 °F 50.0 °F 56% 30.27 in - NNW 12.7 mph - N/A   Clear
9:00 AM 67 °F 51 °F 47% 30.29 in 9 mi NNW 11.5 mph - -   Partly Cloudy
9:00 AM 66.2 °F 51.8 °F 60% 30.27 in - NNW 11.5 mph - N/A   Clear
10:00 AM 68.0 °F 50.0 °F 52% 30.27 in 6.2 mi NNW 11.5 mph - N/A   Mostly Cloudy
10:30 AM 69.8 °F 50.0 °F 49% 30.27 in - NNW 9.2 mph - N/A   Clear
11:00 AM 69.8 °F 50.0 °F 49% 30.24 in - NNW 10.4 mph - N/A   Clear
11:30 AM 69.8 °F 50.0 °F 49% 30.24 in - North 10.4 mph - N/A   Clear
12:00 PM 70 °F 49 °F 37% 30.23 in 9 mi NNE 10.4 mph - -   Partly Cloudy
12:00 PM 69.8 °F 50.0 °F 49% 30.21 in - NNE 10.4 mph - N/A   Clear
12:30 PM 69.8 °F 50.0 °F 49% 30.18 in - North 10.4 mph - N/A   Clear
1:00 PM 69.8 °F 50.0 °F 49% 30.18 in - NNE 10.4 mph - N/A   Clear
1:30 PM 69.8 °F 50.0 °F 49% 30.18 in - NNE 10.4 mph - N/A   Clear
2:00 PM 69.8 °F 50.0 °F 49% 30.18 in - NNE 10.4 mph - N/A   Clear
2:30 PM 69.8 °F 51.8 °F 53% 30.15 in - North 11.5 mph - N/A   Clear
3:00 PM 69 °F 52 °F 45% 30.18 in 10 mi North 11.5 mph - -   Scattered Clouds
3:00 PM 69.8 °F 51.8 °F 53% 30.18 in - North 11.5 mph - N/A   Clear
4:00 PM 68.0 °F 51.8 °F 56% 30.18 in - NNE 10.4 mph - N/A   Clear
4:30 PM 68.0 °F 53.6 °F 60% 30.18 in - NNE 10.4 mph - N/A   Clear
5:00 PM 66.2 °F 53.6 °F 64% 30.18 in - North 10.4 mph - N/A   Clear
6:00 PM 66 °F 50 °F 47% 30.21 in 9 mi North 10.4 mph - -   Clear
6:00 PM 66.2 °F 50.0 °F 56% 30.18 in - North 10.4 mph - N/A   Clear
6:30 PM 66.2 °F 50.0 °F 56% 30.21 in - NNW 10.4 mph - N/A   Clear
7:00 PM 66.2 °F 50.0 °F 56% 30.21 in - NNW 10.4 mph - N/A   Clear
8:00 PM 66.2 °F 48.2 °F 52% 30.21 in - NNW 11.5 mph - N/A   Clear
8:30 PM 66.2 °F 48.2 °F 52% 30.21 in - NW 8.1 mph - N/A   Clear
9:00 PM 65 °F 48 °F 43% 30.24 in 9 mi NW 8.1 mph - -  
9:00 PM 64.4 °F 48.2 °F 56% 30.21 in - NW 8.1 mph - N/A   Clear
9:30 PM 64.4 °F 48.2 °F 56% 30.21 in - NW 6.9 mph - N/A   Clear
10:00 PM 64.4 °F 48.2 °F 56% 30.21 in - NW 5.8 mph - N/A   Clear
10:30 PM 64.4 °F 48.2 °F 56% 30.21 in - NNW 8.1 mph - N/A   Clear
11:00 PM 64.4 °F 48.2 °F 56% 30.21 in - NW 4.6 mph - N/A   Clear
11:30 PM 64.4 °F 48.2 °F 56% 30.21 in - NW 5.8 mph - N/A   Clear